28.03.2024;18:49;4,178;
28.03.2024;18:34;4,172;
28.03.2024;18:19;4,163;
28.03.2024;18:04;4,156;
28.03.2024;17:49;4,151;
28.03.2024;17:34;4,147;
28.03.2024;17:19;4,141;
28.03.2024;17:04;4,135;
28.03.2024;16:49;4,132;
28.03.2024;16:34;4,126;
28.03.2024;16:19;4,123;
28.03.2024;16:04;4,119;
28.03.2024;15:49;4,114;
28.03.2024;15:34;4,112;
28.03.2024;15:19;4,109;
28.03.2024;15:04;4,108;
28.03.2024;14:49;4,104;
28.03.2024;14:34;4,104;
28.03.2024;14:19;4,101;
28.03.2024;14:04;4,100;
28.03.2024;13:49;4,098;
28.03.2024;13:34;4,098;
28.03.2024;13:19;4,097;
28.03.2024;13:04;4,096;
28.03.2024;12:49;4,095;
28.03.2024;12:19;4,093;
28.03.2024;12:04;4,093;
28.03.2024;11:49;4,094;
28.03.2024;11:34;4,093;
28.03.2024;11:19;4,092;
28.03.2024;11:04;4,093;
28.03.2024;10:49;4,094;
28.03.2024;10:34;4,093;
28.03.2024;10:19;4,094;
28.03.2024;10:04;4,093;
28.03.2024;09:49;4,092;
28.03.2024;09:34;4,093;
28.03.2024;09:19;4,094;
28.03.2024;09:04;4,094;
28.03.2024;08:49;4,094;
28.03.2024;08:34;4,092;
28.03.2024;08:19;4,093;
28.03.2024;08:04;4,094;
28.03.2024;07:49;4,093;
28.03.2024;07:19;4,094;
28.03.2024;07:04;4,092;
28.03.2024;06:34;4,091;
28.03.2024;06:19;4,093;
28.03.2024;06:04;4,090;
28.03.2024;05:49;4,090;
28.03.2024;05:34;4,091;
28.03.2024;05:19;4,090;
28.03.2024;05:04;4,090;
28.03.2024;04:49;4,089;
28.03.2024;04:34;4,090;
28.03.2024;04:19;4,089;
28.03.2024;04:04;4,090;
28.03.2024;03:49;4,088;
28.03.2024;03:34;4,087;
28.03.2024;03:19;4,085;
28.03.2024;03:04;4,086;
28.03.2024;02:49;4,085;
28.03.2024;02:34;4,085;
28.03.2024;02:19;4,085;
28.03.2024;02:04;4,083;
28.03.2024;01:49;4,083;
28.03.2024;01:34;4,082;
28.03.2024;01:19;4,081;
28.03.2024;01:04;4,081;
28.03.2024;00:49;4,081;
28.03.2024;00:19;4,082;
28.03.2024;00:04;4,079;
27.03.2024;23:49;4,078;
27.03.2024;23:34;4,079;
27.03.2024;23:19;4,077;
27.03.2024;23:04;4,078;
27.03.2024;22:49;4,076;
27.03.2024;22:34;4,076;
27.03.2024;22:19;4,075;
27.03.2024;22:04;4,076;
27.03.2024;21:49;4,074;
27.03.2024;21:34;4,072;
27.03.2024;21:19;4,071;
27.03.2024;21:04;4,071;
27.03.2024;20:49;4,070;
27.03.2024;20:34;4,071;
27.03.2024;20:19;4,069;
27.03.2024;20:04;4,069;
27.03.2024;19:49;4,067;
27.03.2024;19:34;4,067;
27.03.2024;19:19;4,067;
27.03.2024;19:04;4,064;
27.03.2024;18:49;4,063;
27.03.2024;18:34;4,063;
27.03.2024;18:19;4,062;
27.03.2024;18:04;4,060;
27.03.2024;17:49;4,059;
27.03.2024;17:34;4,057;
27.03.2024;17:19;4,056;
27.03.2024;17:04;4,056;
27.03.2024;16:49;4,054;
27.03.2024;16:34;4,055;
27.03.2024;16:04;4,051;
27.03.2024;15:49;4,051;
27.03.2024;15:34;4,050;
27.03.2024;15:19;4,048;
27.03.2024;15:04;4,047;
27.03.2024;14:49;4,045;
27.03.2024;14:34;4,046;
27.03.2024;14:19;4,047;
27.03.2024;14:04;4,045;
27.03.2024;13:49;4,045;
27.03.2024;13:34;4,044;
27.03.2024;13:19;4,044;
27.03.2024;13:04;4,044;
27.03.2024;12:49;4,044;
27.03.2024;12:34;4,045;
27.03.2024;12:19;4,044;
27.03.2024;12:04;4,044;
27.03.2024;11:49;4,043;
27.03.2024;11:34;4,044;
27.03.2024;11:19;4,044;
27.03.2024;11:04;4,044;
27.03.2024;10:49;4,043;
27.03.2024;10:34;4,044;
27.03.2024;10:19;4,045;
27.03.2024;10:04;4,046;
27.03.2024;09:04;4,050;
27.03.2024;08:49;4,050;
27.03.2024;08:34;4,052;
27.03.2024;08:19;4,053;
27.03.2024;08:04;4,055;
27.03.2024;07:49;4,058;
27.03.2024;07:34;4,059;
27.03.2024;07:19;4,060;
27.03.2024;07:04;4,061;
27.03.2024;06:49;4,062;
27.03.2024;06:19;4,064;
27.03.2024;06:04;4,070;
27.03.2024;05:34;4,070;
27.03.2024;05:19;4,072;
27.03.2024;05:04;4,073;
27.03.2024;04:49;4,075;
27.03.2024;04:34;4,076;
27.03.2024;04:19;4,078;
27.03.2024;04:04;4,080;
27.03.2024;03:49;4,083;
27.03.2024;03:34;4,082;
27.03.2024;03:19;4,086;
27.03.2024;03:04;4,088;
27.03.2024;02:49;4,087;
27.03.2024;02:19;4,090;
27.03.2024;02:04;4,094;
27.03.2024;01:49;4,093;
27.03.2024;01:34;4,096;
27.03.2024;01:19;4,097;
27.03.2024;01:04;4,098;
27.03.2024;00:34;4,103;
27.03.2024;00:19;4,102;
27.03.2024;00:04;4,104;
26.03.2024;23:49;4,105;
26.03.2024;23:34;4,107;
26.03.2024;23:19;4,110;
26.03.2024;23:04;4,110;
26.03.2024;22:49;4,110;
26.03.2024;22:34;4,112;
26.03.2024;22:19;4,114;
26.03.2024;22:04;4,112;
26.03.2024;21:49;4,112;
26.03.2024;21:34;4,113;
26.03.2024;21:19;4,115;
26.03.2024;21:04;4,114;
26.03.2024;20:49;4,111;
26.03.2024;20:34;4,113;
26.03.2024;20:19;4,113;
26.03.2024;20:04;4,110;
26.03.2024;19:49;4,112;
26.03.2024;19:34;4,110;
26.03.2024;19:19;4,111;
26.03.2024;19:04;4,109;
26.03.2024;18:49;4,109;
26.03.2024;18:34;4,104;
26.03.2024;18:19;4,105;
26.03.2024;18:04;4,104;
26.03.2024;17:49;4,101;
26.03.2024;17:34;4,099;
26.03.2024;17:19;4,099;
26.03.2024;17:04;4,096;
26.03.2024;16:34;4,094;
26.03.2024;16:19;4,092;
26.03.2024;16:04;4,090;
26.03.2024;15:49;4,088;
26.03.2024;15:34;4,086;
26.03.2024;15:19;4,086;
26.03.2024;15:04;4,084;
26.03.2024;14:49;4,083;
26.03.2024;14:34;4,082;
26.03.2024;14:19;4,081;
26.03.2024;14:04;4,080;
26.03.2024;13:49;4,080;
26.03.2024;13:34;4,077;
26.03.2024;13:19;4,075;
26.03.2024;13:04;4,074;
26.03.2024;12:49;4,073;
26.03.2024;12:34;4,071;
26.03.2024;12:19;4,069;
26.03.2024;12:04;4,067;
26.03.2024;11:49;4,064;
26.03.2024;11:34;4,062;
26.03.2024;11:19;4,061;
26.03.2024;11:04;4,062;
26.03.2024;10:49;4,063;
26.03.2024;10:34;4,063;
26.03.2024;10:19;4,064;
26.03.2024;10:04;4,067;
26.03.2024;09:49;4,067;
26.03.2024;09:34;4,073;
26.03.2024;09:19;4,075;
26.03.2024;09:04;4,077;
26.03.2024;08:49;4,080;
26.03.2024;08:34;4,085;
26.03.2024;08:19;4,087;
26.03.2024;08:04;4,092;
26.03.2024;07:49;4,095;
26.03.2024;07:34;4,100;
26.03.2024;07:19;4,100;
26.03.2024;07:04;4,104;
26.03.2024;06:49;4,105;
26.03.2024;06:34;4,110;
26.03.2024;06:19;4,112;
26.03.2024;06:04;4,114;
26.03.2024;05:49;4,116;
26.03.2024;05:34;4,116;
26.03.2024;05:19;4,120;
26.03.2024;05:04;4,122;
26.03.2024;04:49;4,123;
26.03.2024;04:34;4,126;
26.03.2024;04:19;4,127;
26.03.2024;04:04;4,130;
26.03.2024;03:49;4,128;
26.03.2024;03:34;4,130;
26.03.2024;03:19;4,132;
26.03.2024;03:04;4,134;
26.03.2024;02:49;4,134;
26.03.2024;02:34;4,135;
26.03.2024;02:19;4,137;
26.03.2024;02:04;4,138;
26.03.2024;01:49;4,139;
26.03.2024;01:34;4,140;
26.03.2024;01:19;4,139;
26.03.2024;01:04;4,141;
26.03.2024;00:49;4,142;
26.03.2024;00:34;4,145;
26.03.2024;00:19;4,145;
26.03.2024;00:04;4,144;
25.03.2024;23:49;4,145;
25.03.2024;23:34;4,147;
25.03.2024;23:19;4,148;
25.03.2024;23:04;4,148;
25.03.2024;22:49;4,148;
25.03.2024;22:34;4,151;
25.03.2024;22:19;4,149;
25.03.2024;22:04;4,152;
25.03.2024;21:49;4,151;
25.03.2024;21:34;4,151;
25.03.2024;21:19;4,154;
25.03.2024;21:04;4,154;
25.03.2024;20:49;4,157;
25.03.2024;20:34;4,156;
25.03.2024;20:19;4,158;
25.03.2024;20:04;4,159;
25.03.2024;19:49;4,158;
25.03.2024;19:34;4,159;
25.03.2024;19:19;4,159;
25.03.2024;19:04;4,161;
25.03.2024;18:49;4,161;
25.03.2024;18:34;4,161;
25.03.2024;18:19;4,164;
25.03.2024;18:04;4,163;
25.03.2024;17:49;4,164;
25.03.2024;17:34;4,165;
25.03.2024;17:19;4,164;
25.03.2024;17:04;4,168;
25.03.2024;16:49;4,168;
25.03.2024;16:34;4,168;
25.03.2024;16:19;4,169;
25.03.2024;16:04;4,167;
25.03.2024;15:49;4,171;
25.03.2024;15:34;4,174;
25.03.2024;15:19;4,173;
25.03.2024;15:04;4,171;
25.03.2024;14:49;4,174;
25.03.2024;14:34;4,176;
25.03.2024;14:19;4,176;
25.03.2024;14:04;4,178;
25.03.2024;13:49;4,176;
25.03.2024;13:34;4,179;
25.03.2024;13:19;4,177;
25.03.2024;13:04;4,179;
25.03.2024;12:49;4,180;
25.03.2024;12:34;4,182;
25.03.2024;12:19;4,183;
25.03.2024;12:04;4,181;
25.03.2024;11:49;4,183;
25.03.2024;11:34;4,184;
25.03.2024;11:19;4,184;
25.03.2024;11:04;4,187;
25.03.2024;10:49;4,186;
25.03.2024;10:34;4,187;
25.03.2024;10:19;4,189;
25.03.2024;10:04;4,190;
25.03.2024;09:49;4,193;
25.03.2024;09:34;4,191;
25.03.2024;09:19;4,194;
25.03.2024;09:04;4,194;
25.03.2024;08:49;4,197;
25.03.2024;08:19;4,199;
25.03.2024;08:04;4,199;
25.03.2024;07:49;4,199;
25.03.2024;07:19;4,202;
25.03.2024;07:04;4,202;
25.03.2024;06:49;4,205;
25.03.2024;06:34;4,206;
25.03.2024;06:19;4,208;
25.03.2024;06:04;4,207;
25.03.2024;05:49;4,210;
25.03.2024;05:34;4,211;
25.03.2024;05:19;4,212;
25.03.2024;05:04;4,212;
25.03.2024;04:49;4,215;
25.03.2024;04:34;4,213;
25.03.2024;04:19;4,218;
25.03.2024;04:04;4,218;
25.03.2024;03:49;4,218;
25.03.2024;03:34;4,217;
25.03.2024;03:19;4,221;
25.03.2024;03:04;4,220;
25.03.2024;02:49;4,224;
25.03.2024;02:34;4,226;
25.03.2024;02:19;4,225;
25.03.2024;02:04;4,226;
25.03.2024;01:49;4,227;
25.03.2024;01:34;4,229;
25.03.2024;01:19;4,228;
25.03.2024;01:04;4,230;
25.03.2024;00:49;4,231;
25.03.2024;00:34;4,232;
25.03.2024;00:19;4,232;
25.03.2024;00:04;4,236;
24.03.2024;23:49;4,236;
24.03.2024;23:34;4,234;
24.03.2024;23:19;4,237;
24.03.2024;23:04;4,239;
24.03.2024;22:49;4,240;
24.03.2024;22:34;4,240;
24.03.2024;22:19;4,241;
24.03.2024;22:04;4,240;
24.03.2024;21:49;4,244;
24.03.2024;21:34;4,248;
24.03.2024;21:19;4,246;
24.03.2024;21:04;4,246;
24.03.2024;20:49;4,249;
24.03.2024;20:34;4,247;
24.03.2024;20:19;4,252;
24.03.2024;20:04;4,251;
24.03.2024;19:49;4,252;
24.03.2024;19:34;4,253;
24.03.2024;19:19;4,254;
24.03.2024;19:04;4,254;
24.03.2024;18:49;4,256;
24.03.2024;18:34;4,256;
24.03.2024;18:04;4,257;
24.03.2024;17:49;4,261;
24.03.2024;17:34;4,260;
24.03.2024;17:19;4,258;
24.03.2024;17:04;4,261;
24.03.2024;16:49;4,264;
24.03.2024;16:34;4,264;
24.03.2024;16:19;4,267;
24.03.2024;16:04;4,266;
24.03.2024;15:49;4,267;
24.03.2024;15:34;4,264;
24.03.2024;15:19;4,269;
24.03.2024;15:04;4,269;
24.03.2024;14:49;4,270;
24.03.2024;14:34;4,271;
24.03.2024;14:19;4,272;
24.03.2024;14:04;4,274;
24.03.2024;13:49;4,277;
24.03.2024;13:34;4,275;
24.03.2024;13:19;4,276;
24.03.2024;13:04;4,277;
24.03.2024;12:49;4,276;
24.03.2024;12:19;4,279;
24.03.2024;12:04;4,282;
24.03.2024;11:49;4,280;
24.03.2024;11:19;4,284;
24.03.2024;11:04;4,283;
24.03.2024;10:49;4,283;
24.03.2024;10:34;4,283;
24.03.2024;10:19;4,286;
24.03.2024;10:04;4,287;
24.03.2024;09:49;4,287;
24.03.2024;09:34;4,288;
24.03.2024;09:19;4,288;
24.03.2024;09:04;4,290;
24.03.2024;08:49;4,289;
24.03.2024;08:34;4,293;
24.03.2024;08:19;4,292;
24.03.2024;08:04;4,293;
24.03.2024;07:49;4,294;
24.03.2024;07:34;4,293;
24.03.2024;07:19;4,295;
24.03.2024;07:04;4,296;
24.03.2024;06:49;4,296;
24.03.2024;06:34;4,296;
24.03.2024;06:19;4,296;
24.03.2024;06:04;4,297;
24.03.2024;05:34;4,297;
24.03.2024;05:19;4,298;
24.03.2024;05:04;4,299;
24.03.2024;04:49;4,300;
24.03.2024;04:34;4,296;
24.03.2024;04:19;4,297;
24.03.2024;04:04;4,299;
24.03.2024;03:49;4,295;
24.03.2024;03:34;4,297;
24.03.2024;03:19;4,295;
24.03.2024;03:04;4,297;
24.03.2024;02:49;4,296;
24.03.2024;02:34;4,294;
24.03.2024;02:19;4,296;
24.03.2024;02:04;4,292;
24.03.2024;01:49;4,292;
24.03.2024;01:34;4,288;
24.03.2024;01:19;4,292;
24.03.2024;01:04;4,289;
24.03.2024;00:49;4,288;
24.03.2024;00:34;4,286;
24.03.2024;00:19;4,286;
24.03.2024;00:04;4,285;
23.03.2024;23:49;4,282;
23.03.2024;23:34;4,281;
23.03.2024;23:19;4,279;
23.03.2024;23:04;4,276;
23.03.2024;22:49;4,275;
23.03.2024;22:34;4,275;
23.03.2024;22:04;4,269;
23.03.2024;21:49;4,269;
23.03.2024;21:34;4,269;
23.03.2024;21:04;4,263;
23.03.2024;20:49;4,261;
23.03.2024;20:34;4,259;
23.03.2024;20:19;4,258;
23.03.2024;20:04;4,251;
23.03.2024;19:49;4,253;
23.03.2024;19:34;4,250;
23.03.2024;19:19;4,249;
23.03.2024;19:04;4,250;
23.03.2024;18:49;4,247;
23.03.2024;18:34;4,244;
23.03.2024;18:19;4,244;
23.03.2024;18:04;4,245;
23.03.2024;17:49;4,246;
23.03.2024;17:34;4,241;
23.03.2024;17:19;4,241;
23.03.2024;17:04;4,242;
23.03.2024;16:49;4,241;
23.03.2024;16:34;4,240;
23.03.2024;16:19;4,242;
23.03.2024;15:49;4,238;
23.03.2024;15:34;4,236;
23.03.2024;15:19;4,233;
23.03.2024;15:04;4,239;
23.03.2024;14:49;4,237;
23.03.2024;14:34;4,237;
23.03.2024;14:19;4,237;
23.03.2024;14:04;4,237;
23.03.2024;13:49;4,238;
23.03.2024;13:34;4,233;
23.03.2024;13:19;4,239;
23.03.2024;13:04;4,235;
23.03.2024;12:49;4,240;
23.03.2024;12:34;4,236;
23.03.2024;12:19;4,237;
23.03.2024;12:04;4,239;
23.03.2024;11:49;4,239;
23.03.2024;11:34;4,241;
23.03.2024;11:19;4,239;
23.03.2024;11:04;4,241;
23.03.2024;10:49;4,238;
23.03.2024;10:34;4,240;
23.03.2024;10:19;4,240;
23.03.2024;10:04;4,240;
23.03.2024;09:49;4,239;
23.03.2024;09:34;4,240;
23.03.2024;09:04;4,241;
23.03.2024;08:49;4,241;
23.03.2024;08:34;4,240;
23.03.2024;08:19;4,242;
23.03.2024;08:04;4,242;
23.03.2024;07:49;4,245;
23.03.2024;07:34;4,243;
23.03.2024;07:19;4,240;
23.03.2024;07:04;4,242;
23.03.2024;06:49;4,240;
23.03.2024;06:34;4,242;
23.03.2024;06:19;4,242;
23.03.2024;06:04;4,241;
23.03.2024;05:49;4,240;
23.03.2024;05:34;4,239;
23.03.2024;05:19;4,239;
23.03.2024;05:04;4,240;
23.03.2024;04:49;4,239;
23.03.2024;04:34;4,240;
23.03.2024;04:19;4,242;
23.03.2024;04:04;4,236;
23.03.2024;03:49;4,237;
23.03.2024;03:34;4,231;
23.03.2024;03:04;4,236;
23.03.2024;02:49;4,233;
23.03.2024;02:34;4,230;
23.03.2024;02:19;4,230;
23.03.2024;02:04;4,229;
23.03.2024;01:49;4,230;
23.03.2024;01:34;4,227;
23.03.2024;01:19;4,226;
23.03.2024;01:04;4,224;
23.03.2024;00:49;4,223;
23.03.2024;00:34;4,225;
23.03.2024;00:19;4,222;
23.03.2024;00:04;4,221;
22.03.2024;23:49;4,219;
22.03.2024;23:34;4,217;
22.03.2024;23:19;4,219;
22.03.2024;23:04;4,215;
22.03.2024;22:49;4,217;
22.03.2024;22:34;4,214;
22.03.2024;22:19;4,211;
22.03.2024;22:04;4,213;
22.03.2024;21:49;4,209;
22.03.2024;21:34;4,211;
22.03.2024;21:19;4,208;
22.03.2024;21:04;4,208;
22.03.2024;20:49;4,208;
22.03.2024;20:34;4,206;
22.03.2024;20:19;4,206;
22.03.2024;20:04;4,207;
22.03.2024;19:49;4,201;
22.03.2024;19:19;4,203;
22.03.2024;18:49;4,201;
22.03.2024;18:34;4,202;
22.03.2024;18:19;4,200;
22.03.2024;18:04;4,200;
22.03.2024;17:34;4,200;
22.03.2024;17:19;4,202;
22.03.2024;17:04;4,198;
22.03.2024;16:49;4,199;
22.03.2024;16:34;4,200;
22.03.2024;16:19;4,200;
22.03.2024;16:04;4,199;
22.03.2024;15:49;4,201;
22.03.2024;15:34;4,198;
22.03.2024;15:19;4,197;
22.03.2024;15:04;4,198;
22.03.2024;14:34;4,200;
22.03.2024;14:19;4,200;
22.03.2024;14:04;4,202;
22.03.2024;13:34;4,204;
22.03.2024;13:19;4,203;
22.03.2024;13:04;4,203;
22.03.2024;12:49;4,202;
22.03.2024;12:34;4,205;
22.03.2024;12:19;4,206;
22.03.2024;12:04;4,206;
22.03.2024;11:49;4,207;
22.03.2024;11:34;4,206;
22.03.2024;11:19;4,208;
22.03.2024;11:04;4,208;
22.03.2024;10:49;4,208;
22.03.2024;10:34;4,212;
22.03.2024;10:19;4,210;
22.03.2024;10:04;4,204;
22.03.2024;09:49;4,212;
22.03.2024;09:34;4,215;
22.03.2024;09:19;4,212;
22.03.2024;09:04;4,212;
22.03.2024;08:49;4,216;
22.03.2024;08:34;4,212;
22.03.2024;08:19;4,216;
22.03.2024;08:04;4,217;
22.03.2024;07:49;4,219;
22.03.2024;07:34;4,222;
22.03.2024;07:19;4,222;
22.03.2024;07:04;4,217;
22.03.2024;06:49;4,220;
22.03.2024;06:34;4,223;
22.03.2024;06:19;4,225;
22.03.2024;06:04;4,224;
22.03.2024;05:49;4,226;
22.03.2024;05:34;4,224;
22.03.2024;05:04;4,222;
22.03.2024;04:49;4,227;
22.03.2024;04:34;4,224;
22.03.2024;04:19;4,228;
22.03.2024;04:04;4,229;
22.03.2024;03:49;4,227;
22.03.2024;03:19;4,228;
22.03.2024;03:04;4,229;
22.03.2024;02:49;4,229;
22.03.2024;02:34;4,228;
22.03.2024;02:19;4,226;
22.03.2024;02:04;4,229;
22.03.2024;01:49;4,230;
22.03.2024;01:34;4,226;
22.03.2024;01:04;4,226;
22.03.2024;00:49;4,224;
22.03.2024;00:34;4,224;
22.03.2024;00:19;4,225;
21.03.2024;23:49;4,221;
21.03.2024;23:34;4,220;
21.03.2024;23:19;4,221;
21.03.2024;23:04;4,219;
21.03.2024;22:49;4,216;
21.03.2024;22:34;4,217;
21.03.2024;22:19;4,213;
21.03.2024;22:04;4,213;
21.03.2024;21:49;4,212;
21.03.2024;21:34;4,209;
21.03.2024;21:19;4,208;
21.03.2024;21:04;4,207;
21.03.2024;20:49;4,204;
21.03.2024;20:34;4,203;
21.03.2024;20:19;4,201;
21.03.2024;20:04;4,199;
21.03.2024;19:49;4,199;
21.03.2024;19:34;4,196;
21.03.2024;19:19;4,196;
21.03.2024;19:04;4,196;
21.03.2024;18:49;4,198;
21.03.2024;18:34;4,192;
21.03.2024;18:19;4,195;
21.03.2024;18:04;4,191;
21.03.2024;17:49;4,188;
21.03.2024;17:34;4,189;
21.03.2024;17:19;4,191;
21.03.2024;17:04;4,189;
21.03.2024;16:49;4,187;
21.03.2024;16:34;4,188;
21.03.2024;16:04;4,188;
21.03.2024;15:49;4,186;
21.03.2024;15:34;4,190;
21.03.2024;15:19;4,187;
21.03.2024;15:04;4,188;
21.03.2024;14:49;4,189;
21.03.2024;14:34;4,188;
21.03.2024;14:19;4,187;
21.03.2024;14:04;4,190;
21.03.2024;13:49;4,191;
21.03.2024;13:34;4,188;
21.03.2024;13:19;4,188;
21.03.2024;13:04;4,191;
21.03.2024;12:49;4,190;
21.03.2024;12:34;4,191;
21.03.2024;12:19;4,193;
21.03.2024;12:04;4,191;
21.03.2024;11:49;4,189;
21.03.2024;11:34;4,195;
21.03.2024;11:19;4,192;
21.03.2024;11:04;4,198;
21.03.2024;10:19;4,201;
21.03.2024;10:04;4,200;
21.03.2024;09:49;4,202;
21.03.2024;09:19;4,202;
21.03.2024;09:04;4,199;
21.03.2024;08:49;4,205;
21.03.2024;08:34;4,204;
21.03.2024;08:19;4,206;
21.03.2024;08:04;4,206;
21.03.2024;07:49;4,207;
21.03.2024;07:34;4,208;
21.03.2024;07:19;4,212;
21.03.2024;07:04;4,211;
21.03.2024;06:34;4,210;
21.03.2024;06:19;4,211;
21.03.2024;06:04;4,217;
21.03.2024;05:49;4,214;
21.03.2024;05:34;4,215;
21.03.2024;05:19;4,213;
21.03.2024;05:04;4,218;
21.03.2024;04:49;4,220;
21.03.2024;04:34;4,219;
21.03.2024;04:19;4,219;
21.03.2024;04:04;4,222;
21.03.2024;03:49;4,221;
21.03.2024;03:34;4,224;
21.03.2024;03:19;4,224;
21.03.2024;02:49;4,226;
21.03.2024;02:34;4,226;
21.03.2024;02:19;4,226;
21.03.2024;02:04;4,226;
21.03.2024;01:49;4,227;
21.03.2024;01:34;4,228;
21.03.2024;01:19;4,232;
21.03.2024;01:04;4,230;
21.03.2024;00:49;4,235;
21.03.2024;00:34;4,230;
21.03.2024;00:19;4,232;
21.03.2024;00:04;4,232;
20.03.2024;23:49;4,231;
20.03.2024;23:34;4,231;
20.03.2024;23:19;4,232;
20.03.2024;23:04;4,234;
20.03.2024;22:49;4,236;
20.03.2024;22:34;4,238;
20.03.2024;22:04;4,234;
20.03.2024;21:49;4,235;
20.03.2024;21:34;4,235;
20.03.2024;21:19;4,239;
20.03.2024;21:04;4,233;
20.03.2024;20:49;4,235;
20.03.2024;20:34;4,234;
20.03.2024;20:19;4,232;
20.03.2024;20:04;4,235;
20.03.2024;19:49;4,237;
20.03.2024;19:34;4,234;
20.03.2024;19:19;4,236;
20.03.2024;19:04;4,239;
20.03.2024;18:49;4,237;
20.03.2024;18:34;4,239;
20.03.2024;18:19;4,235;
20.03.2024;17:49;4,236;
20.03.2024;17:34;4,237;
20.03.2024;17:19;4,239;
20.03.2024;17:04;4,238;
20.03.2024;16:49;4,238;
20.03.2024;16:34;4,241;
20.03.2024;16:19;4,240;
20.03.2024;16:04;4,240;
20.03.2024;15:49;4,242;
20.03.2024;15:34;4,243;
20.03.2024;15:19;4,245;
20.03.2024;15:04;4,242;
20.03.2024;14:49;4,246;
20.03.2024;14:34;4,245;
20.03.2024;14:19;4,247;
20.03.2024;14:04;4,250;
20.03.2024;13:49;4,251;
20.03.2024;13:34;4,248;
20.03.2024;13:19;4,249;
20.03.2024;13:04;4,250;
20.03.2024;12:49;4,250;
20.03.2024;12:34;4,252;
20.03.2024;12:19;4,252;
20.03.2024;12:04;4,252;
20.03.2024;11:49;4,253;
20.03.2024;11:34;4,256;
20.03.2024;11:19;4,252;
20.03.2024;11:04;4,258;
20.03.2024;10:34;4,258;
20.03.2024;10:19;4,259;
20.03.2024;10:04;4,260;
20.03.2024;09:49;4,258;
20.03.2024;09:34;4,262;
20.03.2024;09:19;4,266;
20.03.2024;09:04;4,262;
20.03.2024;08:49;4,264;
20.03.2024;08:34;4,265;
20.03.2024;08:19;4,267;
20.03.2024;08:04;4,269;
20.03.2024;07:49;4,270;
20.03.2024;07:34;4,269;
20.03.2024;07:19;4,271;
20.03.2024;07:04;4,273;
20.03.2024;06:49;4,274;
20.03.2024;06:34;4,275;
20.03.2024;06:19;4,276;
20.03.2024;06:04;4,277;
20.03.2024;05:49;4,279;
20.03.2024;05:34;4,278;
20.03.2024;05:19;4,283;
20.03.2024;05:04;4,285;
20.03.2024;04:49;4,287;
20.03.2024;04:34;4,287;
20.03.2024;04:19;4,288;
20.03.2024;04:04;4,291;
20.03.2024;03:49;4,290;
20.03.2024;03:34;4,291;
20.03.2024;03:19;4,295;
20.03.2024;03:04;4,294;
20.03.2024;02:49;4,292;
20.03.2024;02:34;4,295;
20.03.2024;02:19;4,298;
20.03.2024;02:04;4,300;
20.03.2024;01:49;4,303;
20.03.2024;01:34;4,305;
20.03.2024;01:19;4,304;
20.03.2024;01:04;4,297;
20.03.2024;00:49;4,303;
20.03.2024;00:34;4,307;
20.03.2024;00:19;4,308;
20.03.2024;00:04;4,311;
19.03.2024;23:49;4,311;
19.03.2024;23:34;4,313;
19.03.2024;23:19;4,311;
19.03.2024;23:04;4,314;
19.03.2024;22:49;4,310;
19.03.2024;22:34;4,318;
19.03.2024;22:19;4,315;
19.03.2024;22:04;4,318;
19.03.2024;21:49;4,319;
19.03.2024;21:34;4,318;
19.03.2024;21:19;4,317;
19.03.2024;21:04;4,319;
19.03.2024;20:34;4,320;
19.03.2024;20:19;4,319;
19.03.2024;19:49;4,320;
19.03.2024;19:34;4,315;
19.03.2024;19:19;4,314;
19.03.2024;18:49;4,316;
19.03.2024;18:34;4,312;
19.03.2024;18:19;4,313;
19.03.2024;18:04;4,314;
19.03.2024;17:49;4,310;
19.03.2024;17:34;4,311;
19.03.2024;17:19;4,308;
19.03.2024;17:04;4,305;
19.03.2024;16:49;4,305;
19.03.2024;16:34;4,306;
19.03.2024;16:19;4,305;
19.03.2024;16:04;4,305;
19.03.2024;15:34;4,301;
19.03.2024;15:19;4,301;
19.03.2024;15:04;4,302;
19.03.2024;14:49;4,302;
19.03.2024;14:34;4,303;
19.03.2024;14:19;4,301;
19.03.2024;14:04;4,301;
19.03.2024;13:49;4,304;
19.03.2024;13:34;4,303;
19.03.2024;13:19;4,306;
19.03.2024;13:04;4,305;
19.03.2024;12:49;4,310;
19.03.2024;12:34;4,307;
19.03.2024;12:19;4,308;
19.03.2024;12:04;4,310;
19.03.2024;11:49;4,306;
19.03.2024;11:34;4,311;
19.03.2024;11:19;4,311;
19.03.2024;11:04;4,309;
19.03.2024;10:49;4,316;
19.03.2024;10:34;4,314;
19.03.2024;10:19;4,312;
19.03.2024;10:04;4,317;
19.03.2024;09:49;4,319;
19.03.2024;09:34;4,319;
19.03.2024;09:19;4,324;
19.03.2024;09:04;4,327;
19.03.2024;08:49;4,324;
19.03.2024;08:34;4,334;
19.03.2024;08:19;4,335;
19.03.2024;08:04;4,337;
19.03.2024;07:49;4,341;
19.03.2024;07:34;4,344;
19.03.2024;07:19;4,345;
19.03.2024;07:04;4,349;
19.03.2024;06:49;4,353;
19.03.2024;06:34;4,354;
19.03.2024;06:19;4,359;
19.03.2024;06:04;4,359;
19.03.2024;05:49;4,361;
19.03.2024;05:34;4,364;
19.03.2024;05:19;4,367;
19.03.2024;05:04;4,371;
19.03.2024;04:49;4,375;
19.03.2024;04:34;4,377;
19.03.2024;04:19;4,379;
19.03.2024;04:04;4,381;
19.03.2024;03:49;4,384;
19.03.2024;03:34;4,389;
19.03.2024;03:19;4,388;
19.03.2024;03:04;4,393;
19.03.2024;02:49;4,394;
19.03.2024;02:34;4,398;
19.03.2024;02:19;4,401;
19.03.2024;02:04;4,402;
19.03.2024;01:49;4,401;
19.03.2024;01:34;4,403;
19.03.2024;01:19;4,407;
19.03.2024;01:04;4,409;
19.03.2024;00:49;4,411;
19.03.2024;00:34;4,411;
19.03.2024;00:19;4,414;
19.03.2024;00:04;4,414;
18.03.2024;23:49;4,418;
18.03.2024;23:34;4,427;
18.03.2024;23:19;4,421;
18.03.2024;23:04;4,419;
18.03.2024;22:49;4,423;
18.03.2024;22:34;4,423;
18.03.2024;22:19;4,424;
18.03.2024;22:04;4,424;
18.03.2024;21:49;4,428;
18.03.2024;21:34;4,426;
18.03.2024;21:19;4,429;
18.03.2024;21:04;4,426;
18.03.2024;20:49;4,428;
18.03.2024;20:34;4,425;
18.03.2024;20:19;4,424;
18.03.2024;20:04;4,426;
18.03.2024;19:34;4,423;
18.03.2024;19:19;4,425;
18.03.2024;19:04;4,423;
18.03.2024;18:49;4,423;
18.03.2024;18:19;4,424;
18.03.2024;17:49;4,418;
18.03.2024;17:34;4,414;
18.03.2024;17:19;4,415;
18.03.2024;17:04;4,412;
18.03.2024;16:49;4,409;
18.03.2024;16:34;4,407;
18.03.2024;16:19;4,409;
18.03.2024;16:04;4,408;
18.03.2024;15:49;4,404;
18.03.2024;15:34;4,402;
18.03.2024;15:19;4,403;
18.03.2024;15:04;4,403;
18.03.2024;14:49;4,404;
18.03.2024;14:34;4,399;
18.03.2024;14:19;4,401;
18.03.2024;13:49;4,401;
18.03.2024;13:34;4,404;
18.03.2024;13:19;4,400;
18.03.2024;12:49;4,405;
18.03.2024;12:34;4,404;
18.03.2024;12:19;4,405;
18.03.2024;12:04;4,404;
18.03.2024;11:49;4,410;
18.03.2024;11:34;4,409;
18.03.2024;11:19;4,413;
18.03.2024;11:04;4,414;
18.03.2024;10:49;4,421;
18.03.2024;10:34;4,419;
18.03.2024;10:19;4,425;
18.03.2024;10:04;4,432;
18.03.2024;09:49;4,431;
18.03.2024;09:34;4,430;
18.03.2024;09:19;4,434;
18.03.2024;09:04;4,439;
18.03.2024;08:49;4,444;
18.03.2024;08:34;4,445;
18.03.2024;08:19;4,450;
18.03.2024;08:04;4,454;
18.03.2024;07:49;4,461;
18.03.2024;07:34;4,463;
18.03.2024;07:19;4,463;
18.03.2024;07:04;4,468;
18.03.2024;06:49;4,473;
18.03.2024;06:34;4,475;
18.03.2024;06:19;4,475;